Weather History for EGSC - July, 2013

Change the Weather History Date:

Tuesday, July 2, 2013

  Actual Average Record
Temperature  
Mean Temperature 58 °F -  
Max Temperature 64 °F 69 °F 87 °F (2006)
Min Temperature 51 °F 56 °F 44 °F (2014)
Degree Days  
Heating Degree Days 8    
Growing Degree Days 8 (Base 50)    
Moisture  
Dew Point 51 °F    
Average Humidity 71    
Maximum Humidity 94    
Minimum Humidity 59    
Precipitation  
Precipitation 0.00 in - - ()
Sea Level Pressure  
Sea Level Pressure 29.83 in    
Wind  
Wind Speed 7 mph ()    
Max Wind Speed 15 mph    
Max Gust Speed -    
Visibility 6.2 miles    
Events Rain    
Averages and records for this station are not official NWS values.
T = Trace of Precipitation, MM = Missing Value Source: Averaged Metar Reports

Daily Weather History Graph

Daily Weather History Graph

Search for Another Location

Airport or City:

Trip Planner

Search our weather history database for the weather conditions in past years. The results will help you decide how hot, cold, wet, or windy it might be!

Date:

Astronomy

Jul. 02, 2013 Rise Set
Actual Time 4:43 AM BST 9:23 PM BST
Civil Twilight 3:54 AM BST 10:11 PM BST
Nautical Twilight 2:37 AM BST 11:28 PM BST
Astronomical Twilight 1:35 AM BST 12:31 AM BST
Moon 1:03 AM BST (7/2) 4:01 PM BST (7/2)
Length of Visible Light 18h 16m
Length of Day
16h 39m
Waning Crescent, 28% of the Moon is Illuminated
Jul 2
Waning Crescent
Jul 8
New
Jul 16
First Quarter
Jul 22
Full
Jul 29
Last Quarter

Hourly Weather History & Observations

Time (BST) Temp. Dew Point Humidity Pressure Visibility Wind Dir Wind Speed Gust Speed Precip Events Conditions
6:20 AM 51.8 °F 50.0 °F 94% 29.95 in - SE 1.2 mph - N/A   Clear
6:50 AM 53.6 °F 50.0 °F 88% 29.95 in - Variable 1.2 mph - N/A   Clear
7:20 AM 55.4 °F 51.8 °F 88% 29.95 in - Variable 3.5 mph - N/A   Clear
7:50 AM 57.2 °F 50.0 °F 77% 29.92 in - SE 4.6 mph - N/A   Clear
8:20 AM 59.0 °F 50.0 °F 72% 29.92 in - Variable 3.5 mph - N/A   Clear
8:50 AM 59.0 °F 50.0 °F 72% 29.92 in - SE 4.6 mph - N/A   Clear
9:20 AM 59.0 °F 51.8 °F 77% 29.89 in - SE 6.9 mph - N/A   Clear
9:50 AM 60.8 °F 51.8 °F 72% 29.89 in - SE 9.2 mph - N/A   Clear
10:20 AM 60.8 °F 51.8 °F 72% 29.89 in - SSE 8.1 mph - N/A   Clear
10:50 AM 60.8 °F 51.8 °F 72% 29.89 in - South 10.4 mph - N/A   Clear
11:20 AM 60.8 °F 51.8 °F 72% 29.89 in 6.2 mi South 11.5 mph - N/A   Partly Cloudy
11:50 AM 60.8 °F 51.8 °F 72% 29.86 in 6.2 mi SSE 12.7 mph - N/A   Partly Cloudy
12:20 PM 62.6 °F 51.8 °F 68% 29.86 in 6.2 mi SSE 11.5 mph - N/A   Partly Cloudy
12:50 PM 62.6 °F 50.0 °F 63% 29.83 in 6.2 mi SSE 12.7 mph - N/A   Partly Cloudy
1:20 PM 62.6 °F 48.2 °F 59% 29.83 in 6.2 mi South 13.8 mph - N/A   Partly Cloudy
1:50 PM 60.8 °F 50.0 °F 68% 29.83 in - South 11.5 mph - N/A   Clear
2:20 PM 62.6 °F 50.0 °F 63% 29.80 in - South 10.4 mph - N/A   Clear
2:50 PM 62.6 °F 51.8 °F 68% 29.83 in 6.2 mi South 6.9 mph - N/A   Partly Cloudy
3:20 PM 62.6 °F 51.8 °F 68% 29.80 in 6.2 mi South 11.5 mph - N/A   Partly Cloudy
3:50 PM 62.6 °F 51.8 °F 68% 29.80 in 6.2 mi SSE 9.2 mph - N/A   Partly Cloudy
4:20 PM 64.4 °F 51.8 °F 64% 29.77 in 6.2 mi SSE 13.8 mph - N/A   Partly Cloudy
4:50 PM 62.6 °F 51.8 °F 68% 29.77 in 6.2 mi South 12.7 mph - N/A   Partly Cloudy
5:20 PM 62.6 °F 55.4 °F 77% 29.74 in 6.2 mi SE 11.5 mph - N/A Rain Light Rain
5:50 PM 62.6 °F 53.6 °F 72% 29.74 in 6.2 mi SSE 11.5 mph - N/A   Light Drizzle
6:20 PM 62.6 °F 51.8 °F 68% 29.71 in 6.2 mi SSE 13.8 mph - N/A   Partly Cloudy
6:50 PM 62.6 °F 50.0 °F 63% 29.71 in - SSE 15.0 mph - N/A   Clear
7:20 PM 60.8 °F 48.2 °F 63% 29.71 in - SSE 13.8 mph - N/A   Clear
7:50 PM 60.8 °F 50.0 °F 68% 29.68 in - South 12.7 mph - N/A   Clear
8:20 PM 59.0 °F 50.0 °F 72% 29.68 in - South 10.4 mph - N/A   Clear